Lamar, CO

12:39 PM MST on November 21, 2019 (GMT -0700)
Lamar Municipal

Weather History for KLAA - September, 2019

Change the Weather History Date:

Sunday, September 22, 2019

  Actual Average Record
Temperature  
Mean Temperature 62 °F 64 °F  
Max Temperature 78 °F 81 °F 100 °F (1935)
Min Temperature 45 °F 47 °F 31 °F (1924)
Degree Days  
Heating Degree Days 3 4  
Month to date heating degree days 4 39  
Since 1 July heating degree days 4 44  
Cooling Degree Days 0 3  
Month to date cooling degree days 242 107  
Year to date cooling degree days 1344 1096  
Growing Degree Days 12 (Base 50)    
Moisture  
Dew Point 44 °F    
Average Humidity 56    
Maximum Humidity 86    
Minimum Humidity 25    
Precipitation  
Precipitation 0.00 in 0.03 in 2.65 in (1941)
Month to date precipitation 0.51 1.01  
Year to date precipitation 7.74 13.38  
Sea Level Pressure  
Sea Level Pressure 29.95 in    
Wind  
Wind Speed 6 mph (NE)    
Max Wind Speed 31 mph    
Max Gust Speed 47 mph    
Visibility 10 miles    
Events      
T = Trace of Precipitation, MM = Missing Value Source: NWS Daily Summary

Daily Weather History Graph

Daily Weather History Graph

Search for Another Location

Airport or City:

Astronomy

Sep. 22, 2019 Rise Set
Actual Time 6:38 AM MDT 6:47 PM MDT
Civil Twilight 6:12 AM MDT 7:14 PM MDT
Nautical Twilight 5:41 AM MDT 7:44 PM MDT
Astronomical Twilight 5:10 AM MDT 8:16 PM MDT
Moon No Moon Rise 2:39 PM MDT (9/22)
Length of Visible Light 13h 02m
Length of Day
12h 09m
Last Quarter, 43% of the Moon is Illuminated
Sep 22
Last Quarter
Sep 28
New
Oct 5
First Quarter
Oct 13
Full
Oct 21
Last Quarter

Hourly Weather History & Observations

Time (MDT) Temp. Dew Point Humidity Pressure Visibility Wind Dir Wind Speed Gust Speed Precip Events Conditions
12:08 AM 68.0 °F 50.0 °F 52% 29.87 in 10.0 mi NNW 28.8 mph 46.0 mph N/A   Clear
12:53 AM 62.1 °F 39.0 °F 43% 29.78 in 10.0 mi North 25.3 mph 40.3 mph N/A   Clear
1:53 AM 59.0 °F 41.0 °F 51% 29.82 in 10.0 mi NNE 18.4 mph 28.8 mph N/A   Clear
2:53 AM 57.0 °F 43.0 °F 59% 29.87 in 10.0 mi NNE 9.2 mph 19.6 mph N/A   Clear
3:53 AM 55.9 °F 44.1 °F 64% 29.90 in 10.0 mi NNE 9.2 mph - N/A   Clear
4:53 AM 52.0 °F 44.1 °F 74% 29.93 in 10.0 mi North 8.1 mph - N/A   Clear
5:53 AM 48.9 °F 43.0 °F 80% 29.96 in 10.0 mi WNW 5.8 mph - N/A   Clear
6:53 AM 46.9 °F 42.1 °F 83% 29.99 in 10.0 mi WSW 4.6 mph - N/A   Clear
7:53 AM 53.1 °F 45.0 °F 74% 30.03 in 10.0 mi WNW 8.1 mph - N/A   Clear
8:53 AM 59.0 °F 45.0 °F 60% 30.03 in 10.0 mi NNW 5.8 mph - N/A   Clear
9:53 AM 61.0 °F 44.1 °F 54% 30.02 in 10.0 mi East 3.5 mph - N/A   Clear
10:53 AM 64.9 °F 44.1 °F 47% 30.00 in 10.0 mi Variable 4.6 mph - N/A   Clear
11:53 AM 68.0 °F 44.1 °F 42% 29.98 in 10.0 mi Calm Calm - N/A   Clear
12:53 PM 71.1 °F 44.1 °F 38% 29.97 in 10.0 mi NW 8.1 mph - N/A   Clear
1:53 PM 73.0 °F 43.0 °F 34% 29.94 in 10.0 mi Calm Calm - N/A   Clear
2:53 PM 75.0 °F 42.1 °F 31% 29.93 in 10.0 mi Calm Calm - N/A   Clear
3:53 PM 77.0 °F 42.1 °F 29% 29.91 in 10.0 mi East 4.6 mph - N/A   Clear
4:53 PM 78.1 °F 39.9 °F 25% 29.91 in 10.0 mi SE 6.9 mph - N/A   Clear
5:53 PM 75.0 °F 44.1 °F 33% 29.92 in 10.0 mi East 8.1 mph - N/A   Clear
6:53 PM 68.0 °F 45.0 °F 43% 29.95 in 10.0 mi East 8.1 mph - N/A   Clear
7:53 PM 63.0 °F 46.0 °F 54% 29.99 in 10.0 mi SE 9.2 mph - N/A   Clear
8:53 PM 57.9 °F 44.1 °F 60% 29.99 in 10.0 mi ESE 8.1 mph - N/A   Clear
9:53 PM 54.0 °F 45.0 °F 72% 30.01 in 10.0 mi ENE 5.8 mph - N/A   Clear
10:53 PM 52.0 °F 45.0 °F 77% 30.01 in 10.0 mi NNE 4.6 mph - N/A   Clear
11:53 PM 50.0 °F 43.0 °F 77% 30.02 in 10.0 mi Calm Calm - N/A   Clear